Location: Castillon
(43.0896°N, 0.2156°E)
Time: 18:41:56
(UTC+00:00)

Cosmos 2219 Rocket - Pass Details

Date: 16 June 2021
Orbit: 829 x 845 km, 71.0° (Epoch: 30 July)

Event Time Altitude Azimuth Distance (km) Brightness Sun altitude
Exits shadow 21:24:11 21° 139° (SE) 1,794 3.3 -14.5°
Maximum altitude 21:26:27 28° 103° (ESE) 1,537 3.2 -14.7°
Drops below altitude 10° 21:31:12 10° 46° (NE) 2,473 4.7 -15.2°
Sets 21:33:57 0° 35° (NE) 3,411 5.6 -15.5°
